Location: Theodore Roosevelt National Park
(46.9990°N, 103.4631°W)
Time: 13:21:23
(UTC-06:00)

Iridium 37 - Visible Passes

Search period start: 18 April 2015 00:00
Search period end: 28 April 2015 00:00
Orbit: 776 x 779 km, 86.4° (Epoch: 18 April)

Date Brightness Start Highest point End Pass type
(mag) Time Alt. Az. Time Alt. Az. Time Alt. Az.
19 Apr 8.2 05:25:31 10° SE 05:29:36 25° E 05:33:49 10° NNE visible
20 Apr 8.7 04:53:46 10° ESE 04:56:22 14° ENE 04:59:12 10° NE visible
23 Apr 8.4 04:52:39 10° ESE 04:56:16 20° E 05:00:04 10° NNE visible
24 Apr 8.8 04:21:36 10° E 04:23:04 11° ENE 04:24:50 10° NE visible
26 Apr 7.8 04:51:55 10° SE 04:56:12 27° E 05:00:37 10° NNE visible
27 Apr 8.4 04:19:56 10° ESE 04:22:56 16° ENE 04:26:10 10° NE visible
